{"data":{"norad_id":62336,"intl_designator":"2024-241D","name":"PIESAT-2 12","alt_names":[],"object_type":"PAYLOAD","status":"ACTIVE","operator":null,"country":"PRC","launch_date":"2024-12-16","launch_site_code":"TAISC","launch_vehicle":null,"mission":null,"orbit_class":"UNKNOWN","rcs_meters":null,"size_class":null,"mass_kg":null,"dimensions":null,"purposes":[],"wikipedia_slug":null,"has_3d_model":false,"image_url":null,"decayed_at":null,"tle_current":{"epoch":"2026-05-25T04:53:55.186944Z","epoch_age_seconds":53521,"freshness":"FRESH","line1":"1 62336U 24241D   26145.20411096  .00008606  00000+0  47627-3 0  9992","line2":"2 62336  97.5243  92.9510 0002316  85.7026 274.4470 15.14088163 79324","mean_motion":15.14088163,"eccentricity":0.0002316,"inclination_deg":97.5243,"raan_deg":92.951,"arg_perigee_deg":85.7026,"mean_anomaly_deg":274.447,"bstar":0.00047627,"rev_number":7932,"period_min":95.106747096338,"perigee_km":522.14973172834,"apogee_km":525.34668495684,"semimajor_km":6901.8852083426,"source":"CELESTRAK","updated_at":"2026-05-25T13:38:02.939994Z"}}}